#timestamp,LO_Frequency,Hit,StdDev 
1513303215.8,286046995.3,N
1513303235.7,286046997.9,N
1513303255.5,286046997.3,N
1513303275.4,286046999.1,N
1513303295.2,286046999.2,N
1513303315.0,286047000.4,N
1513303315.9,286047000.4,N
1513303335.8,286046998.4,N
1513303355.6,286046995.6,N
1513303375.5,286046995.2,N
1513303395.3,286046997.8,N
1513303415.1,286046997.0,N
1513303435.9,286046999.4,N
1513303455.7,286046999.0,N
1513303475.5,286046998.1,N
1513303495.4,286047002.7,N
1513303515.2,286047002.6,N
1513303535.1,286046998.7,N
1513303536.0,286046998.7,N
1513303555.8,286046999.4,N
1513303575.6,286047001.2,N
1513303595.5,286047004.3,N
1513303615.3,286046998.1,N
1513303635.2,286047000.1,N
1513303655.9,286047000.4,N
1513303675.7,286046998.9,N
1513303695.6,286046995.3,N
1513303715.4,286046995.3,N
1513303735.2,286046997.4,N
1513303755.1,286046994.9,N
1513303756.0,286046994.9,N
1513303775.8,286046994.3,N
1513303795.7,286046992.8,N
1513303815.5,286046996.4,N
1513303835.3,286046995.4,N
1513303855.2,286046996.9,N
1513303875.0,286046997.5,N
1513303875.9,286046997.5,N
1513303895.8,286046997.0,N
1513303915.6,286046998.6,N
1513303935.4,286046998.7,N
1513303955.3,286046998.4,N
1513303975.1,286046998.9,N
1513303995.8,286046996.4,N
1513304015.7,286046996.4,N
1513304035.5,286046994.5,N
1513304055.4,286046992.6,N
1513304075.2,286046996.0,N
1513304095.0,286046994.5,N
1513304095.9,286046994.5,N
1513304115.8,286046992.2,Y
1513304135.6,286046999.2,P
1513304155.5,286046999.2,N
1513304175.3,286046996.9,N
1513304195.1,286047001.0,N
1513304215.9,286047000.8,N
1513304235.7,286047001.2,N
1513304255.6,286047011.9,Y
1513304275.4,286047002.2,P
1513304295.2,286047000.9,N
1513304315.1,286046998.9,N
1513304316.0,286046998.9,N
1513304335.8,286046998.4,N
1513304355.7,286046998.5,N
1513304375.5,286046998.8,N
1513304395.3,286047000.1,N
1513304415.2,286047002.4,N
1513304435.0,286047004.3,N
1513304435.9,286047004.3,N
1513304455.7,286047001.6,N
1513304475.6,286047006.0,N
1513304495.4,286047004.4,N
1513304515.3,286047003.7,N
1513304535.1,286047003.7,N
1513304555.8,286047001.4,N
1513304575.7,286047005.5,N
1513304595.5,286047002.9,N
1513304615.4,286047004.3,N
1513304635.2,286047004.1,N
1513304655.0,286047003.1,N
1513304655.9,286047003.1,N
1513304675.8,286047005.4,N
1513304695.6,286047003.2,N
1513304715.4,286047004.2,N
1513304735.3,286047006.0,N
1513304755.1,286047004.8,N
1513304775.9,286047003.9,N
1513304795.7,286047004.4,N
1513304815.5,286047002.0,N
1513304835.4,286047001.6,N
1513304855.2,286047003.7,N
1513304875.1,286047000.0,N
1513304876.0,286047000.0,N
1513304895.8,286047002.6,N
1513304915.7,286047006.0,Y
1513304935.5,286047002.2,P
1513304955.3,286047001.2,N
1513304975.2,286046997.5,P
1513304995.9,286046992.3,Y
1513305015.7,286046992.0,P
1513305035.6,286046992.1,N
1513305055.4,286046996.4,N
1513305075.3,286046999.2,N
1513305095.1,286046996.9,N
1513305096.0,286046996.9,N
1513305115.8,286046994.9,N
1513305135.7,286046994.1,N
1513305155.5,286046995.6,N
1513305175.3,286046997.1,N
1513305195.2,286046997.7,N
1513305215.0,286046998.5,N
1513305215.9,286046998.5,N
1513305235.8,286046996.5,N
1513305255.6,286046996.8,N
1513305275.4,286046999.0,N
1513305295.3,286046999.1,N
1513305315.1,286046996.7,N
1513305335.9,286046997.8,N
1513305355.7,286046999.6,N
1513305375.5,286046997.1,N
1513305395.4,286046997.7,N
1513305415.2,286046999.1,N
1513305435.0,286047000.2,N
1513305435.9,286047000.2,N
1513305455.8,286047001.5,N
1513305475.6,286047004.4,N
1513305495.5,286047002.8,N
1513305515.3,286047001.0,N
1513305535.1,286046998.1,N
1513305555.9,286047002.4,N
1513305575.7,286047001.1,N
1513305595.5,286046998.5,N
1513305615.4,286046998.6,N
1513305635.2,286047001.2,N
1513305655.1,286047000.4,N
1513305656.0,286047000.4,N
1513305675.8,286047000.4,N
1513305695.6,286047002.7,N
1513305715.5,286047011.9,Y
1513305735.3,286046995.1,P
1513305755.2,286046997.0,N
1513305775.9,286046996.7,N
1513305795.7,286046997.2,N
1513305815.6,286046994.9,Y
1513305835.4,286047002.3,P
1513305855.3,286047002.2,N
1513305875.1,286047004.3,N
1513305876.0,286047004.3,N
1513305895.8,286047004.0,N
1513305915.7,286047002.2,N
1513305935.5,286047002.1,N
1513305955.3,286046999.7,N
1513305975.2,286047002.1,N
1513305995.0,286047004.2,N
1513305995.9,286047004.2,N
1513306015.8,286047005.8,N
1513306035.6,286047005.0,N
1513306055.4,286047001.7,N
1513306075.3,286047002.2,N
1513306095.1,286046999.7,N
1513306115.9,286046999.2,N
1513306135.7,286047001.0,N
1513306155.5,286047000.6,N
1513306175.4,286047000.3,N
1513306195.2,286047001.2,N
1513306215.0,286047000.6,N
1513306215.9,286047000.6,N
1513306235.8,286046998.8,N
1513306255.6,286046999.8,N
1513306275.5,286047003.8,N
1513306295.3,286047004.0,N
1513306315.1,286047000.2,N
1513306335.9,286047000.8,N
1513306355.7,286047001.5,N
1513306375.5,286047004.1,N
1513306395.4,286047006.0,Y
1513306415.2,286047001.6,P
1513306435.1,286046999.7,N
1513306436.0,286046999.7,N
1513306455.8,286046999.7,N
1513306475.6,286047002.5,N
1513306495.5,286047002.4,N
1513306515.3,286047011.9,Y
1513306535.2,286046998.8,P
1513306555.0,286046996.8,N
1513306555.9,286046996.8,N
1513306575.7,286046998.1,N
1513306595.6,286047001.1,N
1513306615.4,286047000.5,N
1513306635.3,286046998.1,N
1513306655.1,286046998.4,N
1513306656.0,286046998.4,N
1513306675.8,286046999.1,N
1513306695.7,286046996.5,N
1513306715.5,286046998.0,N
1513306735.4,286046996.9,N
1513306755.2,286046995.4,Y
1513306775.0,286046997.2,P
1513306775.9,286046997.2,P
1513306795.8,286046997.7,P
